Time,TemperatureF,DewpointF,PressureIn,WindDirection,WindDirectionDegrees,WindSpeedMPH,WindSpeedGustMPH,Humidity,HourlyPrecipIn,Conditions,Clouds,dailyrainin,SolarRadiationWatts/m^2,SoftwareType,DateUTC
2013-07-17 00:01:00,93.0,62.0,-100.00,SW,220,7.0,12.0,36,0.00,,,-99.99,0.000000,,2013-07-17 07:01:00,
2013-07-17 00:11:00,93.0,62.0,-100.00,SW,220,7.0,12.0,36,0.00,,,-99.99,0.000000,,2013-07-17 07:11:00,
2013-07-17 00:22:00,93.0,62.0,-100.00,SW,220,7.0,12.0,36,0.00,,,-99.99,0.000000,,2013-07-17 07:22:00,
2013-07-17 00:52:00,91.0,67.0,-100.00,SSW,202,8.0,14.0,45,0.00,,,-99.99,0.000000,,2013-07-17 07:52:00,
2013-07-17 01:01:00,91.0,67.0,-100.00,SSW,202,8.0,14.0,45,0.00,,,-99.99,0.000000,,2013-07-17 08:01:00,
2013-07-17 01:11:00,91.0,67.0,-100.00,SSW,202,8.0,14.0,45,0.00,,,-99.99,0.000000,,2013-07-17 08:11:00,
2013-07-17 01:22:00,91.0,67.0,-100.00,SSW,202,8.0,14.0,45,0.00,,,-99.99,0.000000,,2013-07-17 08:22:00,
2013-07-17 01:53:00,88.0,63.0,-100.00,South,190,5.0,14.0,44,0.00,,,-99.99,0.000000,,2013-07-17 08:53:00,
2013-07-17 02:01:00,88.0,63.0,-100.00,South,190,5.0,14.0,44,0.00,,,-99.99,0.000000,,2013-07-17 09:01:00,
2013-07-17 02:11:00,88.0,63.0,-100.00,South,190,5.0,14.0,44,0.00,,,-99.99,0.000000,,2013-07-17 09:11:00,
2013-07-17 02:22:00,88.0,63.0,-100.00,South,190,5.0,14.0,44,0.00,,,-99.99,0.000000,,2013-07-17 09:22:00,
2013-07-17 02:52:00,87.0,67.0,-100.00,SSE,153,1.0,7.0,51,0.00,,,-99.99,0.000000,,2013-07-17 09:52:00,
2013-07-17 03:01:00,87.0,67.0,-100.00,SSE,153,1.0,7.0,51,0.00,,,-99.99,0.000000,,2013-07-17 10:01:00,
2013-07-17 03:11:00,87.0,67.0,-100.00,SSE,153,1.0,7.0,51,0.00,,,-99.99,0.000000,,2013-07-17 10:11:00,
2013-07-17 03:22:00,87.0,67.0,-100.00,SSE,153,1.0,7.0,51,0.00,,,-99.99,0.000000,,2013-07-17 10:22:00,
2013-07-17 03:52:00,85.0,66.0,-100.00,SW,228,0.0,5.0,53,0.00,,,-99.99,0.000000,,2013-07-17 10:52:00,
2013-07-17 04:01:00,85.0,66.0,-100.00,SW,228,0.0,5.0,53,0.00,,,-99.99,0.000000,,2013-07-17 11:01:00,
2013-07-17 04:11:00,85.0,66.0,-100.00,SW,228,0.0,5.0,53,0.00,,,-99.99,0.000000,,2013-07-17 11:11:00,
2013-07-17 04:22:00,85.0,66.0,-100.00,SW,228,0.0,5.0,53,0.00,,,-99.99,0.000000,,2013-07-17 11:22:00,
2013-07-17 05:22:00,83.0,66.0,-100.00,WSW,252,0.0,4.0,57,0.00,,,-99.99,0.000000,,2013-07-17 12:22:00,
2013-07-17 06:01:00,84.0,53.0,-100.00,SSW,213,3.0,5.0,35,0.00,,,-99.99,0.000000,,2013-07-17 13:01:00,
2013-07-17 06:12:00,84.0,53.0,-100.00,SSW,213,3.0,5.0,35,0.00,,,-99.99,0.000000,,2013-07-17 13:12:00,
2013-07-17 06:22:00,84.0,53.0,-100.00,SSW,213,3.0,5.0,35,0.00,,,-99.99,0.000000,,2013-07-17 13:22:00,
2013-07-17 07:02:00,83.0,63.0,-100.00,NW,324,0.0,3.0,51,0.00,,,-99.99,22.000000,,2013-07-17 14:02:00,
2013-07-17 07:11:00,83.0,63.0,-100.00,NW,324,0.0,3.0,51,0.00,,,-99.99,22.000000,,2013-07-17 14:11:00,
2013-07-17 07:22:00,83.0,63.0,-100.00,NW,324,0.0,3.0,51,0.00,,,-99.99,22.000000,,2013-07-17 14:22:00,
2013-07-17 07:52:00,87.0,61.0,-100.00,NNE,23,0.0,5.0,42,0.00,,,-99.99,122.000000,,2013-07-17 14:52:00,
2013-07-17 08:01:00,87.0,61.0,-100.00,NNE,23,0.0,5.0,42,0.00,,,-99.99,122.000000,,2013-07-17 15:01:00,
2013-07-17 08:12:00,87.0,61.0,-100.00,NNE,23,0.0,5.0,42,0.00,,,-99.99,122.000000,,2013-07-17 15:12:00,
2013-07-17 08:21:00,87.0,61.0,-100.00,NNE,23,0.0,5.0,42,0.00,,,-99.99,122.000000,,2013-07-17 15:21:00,
2013-07-17 08:52:00,93.0,58.0,-100.00,North,357,0.0,5.0,31,0.00,,,-99.99,423.000000,,2013-07-17 15:52:00,
2013-07-17 09:01:00,93.0,58.0,-100.00,North,357,0.0,5.0,31,0.00,,,-99.99,423.000000,,2013-07-17 16:01:00,
2013-07-17 09:11:00,93.0,58.0,-100.00,North,357,0.0,5.0,31,0.00,,,-99.99,423.000000,,2013-07-17 16:11:00,
2013-07-17 09:52:00,102.0,46.0,-100.00,NNE,18,0.0,2.0,15,0.00,,,0.00,669.000000,,2013-07-17 16:52:00,
2013-07-17 10:01:00,102.0,46.0,-100.00,NNE,18,0.0,2.0,15,0.00,,,0.00,669.000000,,2013-07-17 17:01:00,
2013-07-17 10:11:00,102.0,46.0,-100.00,NNE,18,0.0,2.0,15,0.00,,,0.00,669.000000,,2013-07-17 17:11:00,
2013-07-17 10:21:00,102.0,46.0,-100.00,NNE,18,0.0,2.0,15,0.00,,,0.00,669.000000,,2013-07-17 17:21:00,
2013-07-17 10:52:00,102.0,47.0,-100.00,North,356,1.0,6.0,16,0.00,,,0.00,903.000000,,2013-07-17 17:52:00,
2013-07-17 11:01:00,102.0,47.0,-100.00,North,356,1.0,6.0,16,0.00,,,0.00,903.000000,,2013-07-17 18:01:00,
2013-07-17 12:01:00,104.0,54.0,-100.00,SW,233,3.0,8.0,19,0.00,,,0.00,1061.000000,,2013-07-17 19:01:00,
2013-07-17 12:11:00,104.0,54.0,-100.00,SW,233,3.0,8.0,19,0.00,,,0.00,1061.000000,,2013-07-17 19:11:00,
2013-07-17 12:22:00,104.0,54.0,-100.00,SW,233,3.0,8.0,19,0.00,,,0.00,1061.000000,,2013-07-17 19:22:00,
2013-07-17 12:53:00,105.0,58.0,-100.00,SSW,213,4.0,8.0,22,0.00,,,0.00,1148.000000,,2013-07-17 19:53:00,
2013-07-17 13:01:00,105.0,58.0,-100.00,SSW,213,4.0,8.0,22,0.00,,,0.00,1148.000000,,2013-07-17 20:01:00,
2013-07-17 13:11:00,105.0,58.0,-100.00,SSW,213,4.0,8.0,22,0.00,,,0.00,1148.000000,,2013-07-17 20:11:00,
2013-07-17 13:22:00,105.0,58.0,-100.00,SSW,213,4.0,8.0,22,0.00,,,0.00,1148.000000,,2013-07-17 20:22:00,
2013-07-17 13:52:00,108.0,61.0,-100.00,ENE,64,4.0,11.0,22,0.00,,,0.00,1182.000000,,2013-07-17 20:52:00,
2013-07-17 14:01:00,108.0,61.0,-100.00,ENE,64,4.0,11.0,22,0.00,,,0.00,1182.000000,,2013-07-17 21:01:00,
2013-07-17 14:12:00,108.0,61.0,-100.00,ENE,64,4.0,11.0,22,0.00,,,0.00,1182.000000,,2013-07-17 21:12:00,
2013-07-17 14:22:00,108.0,61.0,-100.00,ENE,64,4.0,11.0,22,0.00,,,0.00,1182.000000,,2013-07-17 21:22:00,
2013-07-17 14:52:00,109.0,59.0,-100.00,SSW,202,5.0,13.0,20,0.00,,,-99.99,1136.000000,,2013-07-17 21:52:00,
2013-07-17 15:01:00,109.0,59.0,-100.00,SSW,202,5.0,13.0,20,0.00,,,-99.99,1136.000000,,2013-07-17 22:01:00,
2013-07-17 15:11:00,109.0,59.0,-100.00,SSW,202,5.0,13.0,20,0.00,,,-99.99,1136.000000,,2013-07-17 22:11:00,
2013-07-17 15:21:00,109.0,59.0,-100.00,SSW,202,5.0,13.0,20,0.00,,,-99.99,1136.000000,,2013-07-17 22:21:00,
2013-07-17 15:53:00,109.0,59.0,-100.00,South,180,3.0,10.0,20,0.00,,,0.00,778.000000,,2013-07-17 22:53:00,
2013-07-17 16:01:00,109.0,59.0,-100.00,South,180,3.0,10.0,20,0.00,,,0.00,778.000000,,2013-07-17 23:01:00,
2013-07-17 16:11:00,109.0,59.0,-100.00,South,180,3.0,10.0,20,0.00,,,0.00,778.000000,,2013-07-17 23:11:00,
2013-07-17 16:22:00,109.0,59.0,-100.00,South,180,3.0,10.0,20,0.00,,,0.00,778.000000,,2013-07-17 23:22:00,
2013-07-17 16:52:00,110.0,57.0,-100.00,SSW,200,2.0,13.0,18,0.00,,,0.00,805.000000,,2013-07-17 23:52:00,
2013-07-17 17:01:00,110.0,57.0,-100.00,SSW,200,2.0,13.0,18,0.00,,,0.00,805.000000,,2013-07-18 00:01:00,
2013-07-17 17:11:00,110.0,57.0,-100.00,SSW,200,2.0,13.0,18,0.00,,,0.00,805.000000,,2013-07-18 00:11:00,
2013-07-17 17:22:00,110.0,57.0,-100.00,SSW,200,2.0,13.0,18,0.00,,,0.00,805.000000,,2013-07-18 00:22:00,
2013-07-17 17:52:00,109.0,56.0,-100.00,SSW,204,6.0,14.0,18,0.00,,,0.00,502.000000,,2013-07-18 00:52:00,
2013-07-17 18:01:00,109.0,56.0,-100.00,SSW,204,6.0,14.0,18,0.00,,,0.00,502.000000,,2013-07-18 01:01:00,
2013-07-17 18:11:00,109.0,56.0,-100.00,SSW,204,6.0,14.0,18,0.00,,,0.00,502.000000,,2013-07-18 01:11:00,
2013-07-17 18:22:00,109.0,56.0,-100.00,SSW,204,6.0,14.0,18,0.00,,,0.00,502.000000,,2013-07-18 01:22:00,
2013-07-17 18:53:00,105.0,53.0,-100.00,SW,217,10.0,16.0,18,0.00,,,0.00,120.000000,,2013-07-18 01:53:00,
2013-07-17 19:01:00,105.0,53.0,-100.00,SW,217,10.0,16.0,18,0.00,,,0.00,120.000000,,2013-07-18 02:01:00,
2013-07-17 19:11:00,105.0,53.0,-100.00,SW,217,10.0,16.0,18,0.00,,,0.00,120.000000,,2013-07-18 02:11:00,
2013-07-17 19:21:00,105.0,53.0,-100.00,SW,217,10.0,16.0,18,0.00,,,0.00,120.000000,,2013-07-18 02:21:00,
2013-07-17 19:52:00,104.0,49.0,-100.00,SW,222,9.0,17.0,16,0.00,,,0.00,68.000000,,2013-07-18 02:52:00,
2013-07-17 20:01:00,104.0,49.0,-100.00,SW,222,9.0,17.0,16,0.00,,,0.00,68.000000,,2013-07-18 03:01:00,
2013-07-17 20:11:00,104.0,49.0,-100.00,SW,222,9.0,17.0,16,0.00,,,0.00,68.000000,,2013-07-18 03:11:00,
2013-07-17 20:22:00,104.0,49.0,-100.00,SW,222,9.0,17.0,16,0.00,,,0.00,68.000000,,2013-07-18 03:22:00,
2013-07-17 20:52:00,103.0,51.0,-100.00,West,278,7.0,13.0,18,0.00,,,0.00,5.000000,,2013-07-18 03:52:00,
2013-07-17 21:02:00,103.0,51.0,-100.00,West,278,7.0,13.0,18,0.00,,,0.00,5.000000,,2013-07-18 04:02:00,
2013-07-17 21:12:00,103.0,51.0,-100.00,West,278,7.0,13.0,18,0.00,,,0.00,5.000000,,2013-07-18 04:12:00,
2013-07-17 21:22:00,103.0,51.0,-100.00,West,278,7.0,13.0,18,0.00,,,0.00,5.000000,,2013-07-18 04:22:00,
2013-07-17 21:52:00,99.0,52.0,-100.00,SE,125,0.0,8.0,21,0.00,,,0.00,0.000000,,2013-07-18 04:52:00,
2013-07-17 22:01:00,99.0,52.0,-100.00,SE,125,0.0,8.0,21,0.00,,,0.00,0.000000,,2013-07-18 05:01:00,
2013-07-17 22:11:00,99.0,52.0,-100.00,SE,125,0.0,8.0,21,0.00,,,0.00,0.000000,,2013-07-18 05:11:00,
2013-07-17 22:21:00,99.0,52.0,-100.00,SE,125,0.0,8.0,21,0.00,,,0.00,0.000000,,2013-07-18 05:21:00,
2013-07-17 22:52:00,97.0,53.0,-100.00,West,264,1.0,4.0,23,0.00,,,0.00,0.000000,,2013-07-18 05:52:00,
2013-07-17 23:01:00,97.0,53.0,-100.00,West,264,1.0,4.0,23,0.00,,,0.00,0.000000,,2013-07-18 06:01:00,
2013-07-17 23:11:00,97.0,53.0,-100.00,West,264,1.0,4.0,23,0.00,,,0.00,0.000000,,2013-07-18 06:11:00,
2013-07-17 23:22:00,97.0,53.0,-100.00,West,264,1.0,4.0,23,0.00,,,0.00,0.000000,,2013-07-18 06:22:00,
2013-07-17 23:52:00,96.0,52.0,-100.00,WSW,239,3.0,8.0,23,0.00,,,0.00,0.000000,,2013-07-18 06:52:00,